Lid_Strength_Index
-1 -1 -1 -1 -1 -1 -1 -1 -2 -2 -2 -2 -2 -2 -2 -2 -1 2 4 1 -0 -4 -3 0 1 1 1 2 1 2 10 11 10 9 9 8 8 8 7 10 10 9 10 9 8
-1 -1 -1 -1 -1 -1 -1 -1 -1 -1 -2 -2 -2 -2 -2 -2 2 3 -1 -3 -3 -3 1 2 3 2 4 3 4 6 10 9 7 7 7 7 7 9 9 10 11 11 10 9 9
-0 -1 -1 -0 -1 -1 -1 -1 -1 -1 -2 -2 -2 -2 -2 -0 3 5 -3 -4 -4 -2 0 1 2 2 3 3 6 6 9 6 7 7 6 7 8 7 9 11 11 12 11 10 10
0 0 -0 -0 -1 -1 -1 -1 -1 -1 -2 -2 -1 -2 -1 2 8 4 -3 -5 -4 -1 1 2 3 5 5 6 5 8 8 7 7 7 7 8 8 9 9 10 8 10 10 10 11
-0 -0 -0 -0 0 -0 -0 -1 -1 -1 -1 -1 -1 -2 2 5 6 2 -3 -2 1 2 2 3 4 4 6 7 7 8 9 9 8 7 8 8 9 9 10 10 9 9 10 10 10
-0 -0 -0 -1 0 0 -0 -0 -0 -1 -1 -1 -1 -1 3 7 3 2 3 2 2 2 2 2 3 4 6 8 9 8 9 9 8 9 8 9 10 10 10 10 10 10 11 11 10
0 0 0 -0 -0 0 0 -0 -0 -0 -0 -1 -1 2 5 7 3 3 2 3 2 2 3 3 3 4 6 9 7 9 11 10 10 9 10 9 11 12 11 10 12 12 12 11 10
0 0 0 0 0 0 -0 0 0 -0 -0 -1 -1 4 7 4 3 3 2 3 2 2 3 3 3 5 6 8 8 10 10 11 10 10 11 11 12 10 11 12 12 12 13 12 11
1 1 1 1 1 0 0 0 0 -0 -0 -0 4 5 7 3 5 4 3 4 4 4 3 4 3 6 7 10 11 11 13 11 11 9 10 12 12 11 11 11 12 13 13 12 12
1 1 1 1 1 1 1 1 -0 1 3 3 4 7 6 7 5 4 4 3 5 4 5 5 6 8 9 10 14 13 13 12 12 11 11 12 12 11 11 12 12 13 13 13 12
2 2 2 2 2 2 2 4 5 5 5 6 6 7 7 6 5 6 4 5 5 6 9 6 9 10 10 10 11 12 12 12 11 10 12 12 12 10 11 12 13 13 13 13 12
2 2 2 2 2 2 4 4 5 4 7 5 6 6 6 5 7 6 5 7 7 9 7 9 10 10 9 10 11 12 13 13 12 11 13 13 12 10 11 12 12 12 13 13 13
2 3 2 2 3 4 4 5 3 3 7 7 6 6 7 6 7 7 6 6 8 9 9 10 10 9 10 10 11 12 13 14 14 12 12 13 14 12 10 10 11 11 12 12 12
3 3 3 3 4 4 5 3 2 2 10 10 9 7 7 6 8 6 6 6 8 9 9 10 9 10 10 11 11 14 12 12 13 14 16 13 17 14 12 12 12 12 12 12 12
3 3 4 4 5 5 5 3 3 4 15 9 9 6 6 8 8 8 6 7 9 9 9 11 11 11 11 12 11 13 12 13 13 14 15 14 17 15 13 14 13 12 12 12 12
4 4 4 3 4 5 4 3 4 11 15 11 9 9 9 8 8 8 7 6 7 9 9 11 10 11 12 11 11 11 13 13 13 15 17 14 16 15 14 13 12 12 12 12 12
5 5 5 3 5 4 4 5 11 14 10 12 10 9 9 10 9 9 10 10 11 13 13 11 12 12 11 12 11 12 15 16 17 18 17 14 17 15 12 11 11 12 12 12 12
5 5 3 3 3 4 5 9 14 11 11 9 9 10 11 9 10 9 10 12 10 10 12 13 14 12 11 13 14 13 14 17 20 19 17 15 18 14 12 11 11 11 11 11 12
6 4 3 3 4 5 8 13 12 10 10 11 10 11 11 10 10 10 11 11 10 10 13 13 14 13 12 12 13 13 15 14 16 16 18 15 14 14 13 14 13 13 12 12 12
5 4 4 5 5 6 10 12 10 9 9 9 12 10 11 11 12 11 10 10 10 10 10 12 15 13 13 13 13 14 13 16 16 19 20 16 15 15 15 14 14 14 14 13 12
6 6 6 5 6 9 13 11 10 9 9 10 10 10 10 10 11 11 10 11 10 10 10 11 13 15 13 14 14 15 15 15 15 16 19 19 16 14 12 12 13 14 13 13 12
5 10 6 6 11 10 12 10 10 9 8 9 10 10 10 10 11 11 10 10 10 10 12 11 12 15 14 14 13 14 14 13 16 16 17 18 17 10 13 12 11 12 12 13 12
7 8 6 7 12 11 10 10 9 10 10 10 10 9 9 10 12 10 10 9 10 10 11 11 13 15 17 16 14 15 14 14 13 15 16 18 15 12 12 13 12 12 12 12 12
7 11 9 9 9 10 11 11 11 9 10 9 10 10 10 11 10 10 10 10 10 10 8 9 12 13 15 14 13 16 14 14 14 17 16 16 14 11 11 12 12 12 12 13 13
7 9 9 12 11 10 10 10 11 11 10 10 11 11 11 12 11 11 10 11 11 9 11 11 13 12 11 11 12 13 13 14 16 14 16 14 14 11 11 11 11 11 11 12 13
8 9 9 10 10 11 11 11 11 11 10 11 12 10 11 12 11 11 10 11 11 11 12 11 13 13 13 11 11 13 12 13 14 14 14 14 14 10 11 11 11 11 11 12 12
5 6 8 10 11 12 11 11 11 10 10 9 10 11 11 10 10 10 10 10 10 11 12 12 13 14 16 12 13 15 13 13 13 13 14 16 12 11 11 11 11 11 11 11 11